Location: Northam
(31.6525°S, 116.6655°E)
Time: 19:46:58
(UTC+08:00)

Vanguard 3 - All Passes

Search period start: 13 June 2021 00:00
Search period end: 23 June 2021 00:00
Orbit: 508 x 3262 km, 33.3° (Epoch: 12 June)

Date Brightness Start Highest point End Pass type
(mag) Time Alt. Az. Time Alt. Az. Time Alt. Az.
13 Jun - 00:37:56 10° W 00:52:08 89° N 00:59:44 10° ENE night (unlit)
13 Jun - 02:55:42 10° W 03:04:18 37° NW 03:09:31 10° NNE night (unlit)
13 Jun - 16:35:27 10° N 16:48:42 24° NE 17:02:11 10° E daylight
13 Jun - 18:45:06 10° NW 19:04:09 56° NNE 19:20:10 10° ESE visible
13 Jun - 21:00:45 10° WNW 21:20:40 87° NNE 21:33:48 10° ESE visible
13 Jun - 23:19:37 10° W 23:36:35 84° S 23:46:03 10° E visible
14 Jun - 01:38:10 10° WSW 01:50:19 64° NNW 01:56:56 10° NE night (unlit)
14 Jun - 03:57:03 10° W 04:00:58 15° NW 04:04:05 10° NNW night (unlit)
14 Jun - 15:26:55 10° NNE 15:32:46 12° NE 15:38:51 10° ENE daylight
14 Jun - 17:30:19 10° NNW 17:47:20 41° NE 18:03:48 10° E visible
14 Jun - 19:43:28 10° WNW 20:03:36 75° NNE 20:18:58 10° ESE visible
14 Jun - 22:01:09 10° W 22:20:17 84° S 22:31:57 10° E visible
15 Jun - 00:20:14 10° WSW 00:35:28 85° NNW 00:43:43 10° ENE visible
15 Jun - 02:38:29 10° W 02:47:39 34° NW 02:53:17 10° NNE night (unlit)
15 Jun - 16:17:11 10° N 16:30:59 27° NE 16:45:43 10° E daylight
15 Jun - 18:27:21 10° NW 18:46:24 61° NNE 19:03:27 10° ESE visible
15 Jun - 20:43:04 10° WNW 21:03:20 90° N 21:17:25 10° E visible
15 Jun - 23:01:52 10° W 23:19:43 86° S 23:29:58 10° E visible
16 Jun - 01:20:35 10° WSW 01:33:38 59° NNW 01:40:51 10° NE night (unlit)
16 Jun - 03:40:40 10° WNW 03:44:14 13° NW 03:47:10 10° NNW night (unlit)
16 Jun - 15:07:08 10° NNE 15:15:13 15° NE 15:24:00 10° ENE daylight
16 Jun - 17:12:33 10° NNW 17:29:30 46° NE 17:46:56 10° ESE visible
16 Jun - 19:25:52 10° WNW 19:45:59 79° NNE 20:02:20 10° ESE visible
16 Jun - 21:43:27 10° W 22:03:10 84° S 22:15:42 10° E visible
17 Jun - 00:02:28 10° WSW 00:18:41 80° NNW 00:27:38 10° ENE visible
17 Jun - 02:21:12 10° W 02:30:54 31° NW 02:36:56 10° NNE night (unlit)
17 Jun - 15:59:17 10° N 16:13:12 31° NE 16:28:57 10° E daylight
17 Jun - 18:09:49 10° NW 18:28:37 66° NNE 18:46:35 10° ESE visible
17 Jun - 20:25:29 10° WNW 20:45:56 88° S 21:00:56 10° E visible
17 Jun - 22:44:07 10° W 23:02:46 88° S 23:13:48 10° E visible
18 Jun - 01:02:55 10° WSW 01:16:50 54° NNW 01:24:40 10° NE night (unlit)
18 Jun - 03:24:28 10° WNW 03:27:25 12° NW 03:29:57 10° NNW night (unlit)
18 Jun - 14:48:27 10° NNE 14:57:36 17° NE 15:08:05 10° E daylight
18 Jun - 16:55:03 10° NNW 17:11:38 50° NE 17:29:55 10° ESE daylight
18 Jun - 19:08:25 10° WNW 19:28:20 83° NNE 19:45:36 10° ESE visible
18 Jun - 21:25:49 10° W 21:45:57 84° S 21:59:23 10° E visible
18 Jun - 23:44:39 10° WSW 00:01:46 76° NNW 00:11:29 10° ENE visible
19 Jun - 02:03:52 10° W 02:14:00 29° NW 02:20:29 10° NNE night (unlit)
19 Jun - 15:41:41 10° NNW 15:55:24 34° NE 16:11:56 10° E daylight
19 Jun - 17:52:28 10° NW 18:10:48 70° NNE 18:29:35 10° ESE visible
19 Jun - 20:08:02 10° W 20:28:28 86° S 20:44:23 10° E visible
19 Jun - 22:26:21 10° W 22:45:40 89° NNW 22:57:34 10° ENE visible
20 Jun - 00:45:14 10° WSW 00:59:52 50° NW 01:08:22 10° NE visible
20 Jun - 03:08:48 10° WNW 03:10:30 11° NW 03:12:04 10° NW night (unlit)
20 Jun - 14:30:20 10° N 14:39:59 20° NE 14:51:37 10° E daylight
20 Jun - 16:37:45 10° NW 16:53:47 54° NE 17:12:44 10° ESE daylight
20 Jun - 18:51:08 10° WNW 19:10:39 86° NNE 19:28:46 10° ESE visible
20 Jun - 21:08:15 10° W 21:28:39 85° S 21:42:59 10° E visible
20 Jun - 23:26:51 10° WSW 23:44:43 71° NNW 23:55:12 10° NE visible
21 Jun - 01:46:32 10° W 01:57:00 27° NW 02:03:55 10° N night (unlit)
21 Jun - 15:24:20 10° NNW 15:37:38 38° NE 15:54:42 10° E daylight
21 Jun - 17:35:19 10° WNW 17:53:00 74° NNE 18:12:28 10° ESE visible
21 Jun - 19:50:41 10° W 20:10:57 85° S 20:27:44 10° E visible
21 Jun - 22:08:38 10° WSW 22:28:27 86° NNW 22:41:14 10° ENE visible
22 Jun - 00:27:30 10° WSW 00:42:46 47° NW 00:51:58 10° NNE visible
22 Jun - 14:12:39 10° N 14:22:23 22° NE 14:34:46 10° E daylight
22 Jun - 16:20:39 10° NW 16:35:59 59° NNE 16:55:23 10° ESE daylight
22 Jun - 18:34:00 10° WNW 18:52:59 89° NNE 19:11:49 10° E visible
22 Jun - 20:50:45 10° W 21:11:15 86° S 21:26:30 10° E visible
22 Jun - 23:09:04 10° WSW 23:27:30 67° NNW 23:38:51 10° NE visible
